TULLARI Weather Reports


time (UTC)temp
C
wind
direction
speed
KPH
gust
KPH
rain 1hr
cm
rain 24hr
cm
rain mn
cm
humidity
%
barometer
mb
20260906050501 10 346 25.7 33.8 0.00 0.00 0.00 79 1006.9
20260906044132 10 348 25.7 33.8 0.00 0.00 0.00 82 1006.6
20260906042131 10 353 32.2 41.8 0.00 0.00 0.00 83 1006.3
20260906040500 9 353 32.2 46.7 0.00 0.00 0.00 85 1005.9
20260906034131 10 345 33.8 43.5 0.00 0.00 0.00 85 1005.6
20260906032459 10 340 35.4 49.9 0.00 0.00 0.00 85 1005.4
20260906022501 10 345 32.2 41.8 0.00 0.00 0.00 83 1004.7
20260906020130 10 350 30.6 37.0 0.00 0.00 0.00 83 1004.5
20260906012131 10 346 37.0 46.7 0.00 0.00 0.00 81 1004.0
20260906010501 11 344 33.8 45.1 0.00 0.00 0.00 80 1003.8
20260906004502 11 345 35.4 46.7 0.00 0.00 0.00 79 1003.5
20260906002130 11 341 38.6 48.3 0.00 0.00 0.00 78 1003.2
20260906000457 11 339 32.2 41.8 0.00 0.00 0.00 80 1003.0
20260905234500 12 350 29.0 40.2 0.00 0.00 0.00 80 1002.7
20260905232459 12 344 25.7 35.4 0.00 0.00 0.00 82 1002.3
20260905230500 13 352 24.1 32.2 0.00 0.00 0.00 78 1002.1
20260905224131 13 3 27.4 35.4 0.00 0.00 0.00 75 1001.8
20260905222500 13 8 27.4 35.4 0.00 0.00 0.00 77 1001.6
20260905220500 13 351 24.1 33.8 0.00 0.00 0.00 79 1001.4
20260905214500 14 343 27.4 33.8 0.00 0.00 0.00 80 1001.2
20260905212130 15 334 24.1 30.6 0.00 0.00 0.00 80 1001.0
20260905210456 15 326 24.1 30.6 0.00 0.00 0.00 79 1000.9
20260905202459 15 319 20.9 24.1 0.00 0.00 0.00 77 1000.5
20260905200500 15 318 19.3 25.7 0.00 0.00 0.00 76 1000.3
20260905194129 15 312 19.3 25.7 0.00 0.00 0.00 77 1000.1
20260905192130 15 308 19.3 22.5 0.00 0.00 0.00 77 1000.1
20260905190130 15 308 19.3 24.1 0.00 0.00 0.00 76 1000.0
20260905184459 15 309 20.9 25.7 0.00 0.00 0.00 74 999.9
20260905182458 15 312 19.3 25.7 0.00 0.00 0.00 74 999.8
20260905180455 15 308 24.1 29.0 0.00 0.00 0.00 72 999.5
20260905174455 15 307 24.1 29.0 0.00 0.00 0.00 71 999.4
20260905172457 16 310 25.7 32.2 0.00 0.00 0.00 71 999.2
20260905170458 16 309 25.7 33.8 0.00 0.00 0.00 64 998.5
20260905164459 16 308 27.4 32.2 0.00 0.00 0.00 68 998.8
20260905162130 16 309 25.7 33.8 0.00 0.00 0.00 64 998.5
20260905160457 16 309 29.0 37.0 0.00 0.00 0.00 65 998.3
20260905154130 16 304 30.6 38.6 0.00 0.00 0.00 62 998.0
20260905152130 17 302 27.4 35.4 0.00 0.00 0.00 60 998.0
20260905150457 17 292 27.4 37.0 0.00 0.00 0.00 60 997.7
20260905142458 17 288 27.4 33.8 0.00 0.00 0.00 63 997.5
20260905140457 17 290 25.7 30.6 0.00 0.00 0.00 61 997.4
20260905134456 17 287 22.5 29.0 0.00 0.00 0.00 61 997.3
20260905132129 16 263 22.5 27.4 0.00 0.00 0.00 67 997.2
20260905130501 17 261 16.1 17.7 0.00 0.00 0.00 65 997.1
20260905124457 16 260 17.7 20.9 0.00 0.00 0.00 69 997.0
20260905122455 16 261 16.1 19.3 0.00 0.00 0.00 66 996.9
20260905120457 16 267 14.5 17.7 0.00 0.00 0.00 64 996.8
20260905114127 16 259 16.1 19.3 0.00 0.00 0.00 65 996.8
20260905112458 16 262 12.9 16.1 0.00 0.00 0.00 63 996.7
20260905110456 16 257 11.3 14.5 0.00 0.00 0.00 67 996.5
20260905104458 15 273 12.9 16.1 0.00 0.00 0.00 65 996.4
20260905102458 16 277 9.7 16.1 0.00 0.00 0.00 68 996.0
20260905100457 16 287 11.3 14.5 0.00 0.00 0.00 67 996.0
20260905094456 15 293 11.3 14.5 0.00 0.00 0.00 67 995.8
20260905092457 15 313 9.7 14.5 0.00 0.00 0.00 70 995.7
20260905090457 15 328 12.9 17.7 0.00 0.00 0.00 72 995.6
20260905084458 14 334 14.5 20.9 0.00 0.00 0.00 70 995.5
20260905080126 13 333 14.5 17.7 0.00 0.00 0.00 78 995.0
20260905074454 13 333 12.9 17.7 0.00 0.00 0.00 79 995.0
20260905072455 13 336 11.3 16.1 0.00 0.00 0.00 81 994.9
20260905064127 13 335 9.7 14.5 0.00 0.00 0.00 81 994.7
20260905062126 13 341 8.0 11.3 0.00 0.00 0.00 80 994.5
20260905060456 12 2 8.0 11.3 0.00 0.00 0.00 81 994.5
20260905054127 12 347 4.8 6.4 0.00 0.00 0.00 83 994.4
20260905052454 12 16 6.4 9.7 0.00 0.00 0.00 81 994.4